BAW2558 EGKK-LSGG

Flight info

Callsign BAW2558
Flight time 1h 10m
Altitude 31000
Route BOGNA L612 XAMAB UL612 VEULE DCT PEKIM DCT PILUL DCT PIMUP/N0430F270 DCT PIXIS DCT PIBAT DCT LUSAR
Aircraft A321/M-SDE3FGHIRWY/LB1

Departure

Time 2026-04-15 06:59
Airport London Gatwick Airport (EGKK)

Arrival

Time 2026-04-15 08:09
Airport Geneva International Airport (LSGG)
Time Latitude Longitude Altitude Speed Heading
2026-04-15 06:44 51.15462 -0.17159 204 ft 0 kts 36°
2026-04-15 06:51 51.15454 -0.17168 206 ft 4 kts 36°
2026-04-15 06:51 51.15433 -0.17192 203 ft 3 kts 36°
2026-04-15 06:51 51.15416 -0.17220 203 ft 4 kts 78°
2026-04-15 06:51 51.15420 -0.17256 207 ft 4 kts 134°
2026-04-15 06:52 51.15438 -0.17274 203 ft 2 kts 167°
2026-04-15 06:52 51.15459 -0.17281 203 ft 1 kts 167°
2026-04-15 06:54 51.15451 -0.17279 210 ft 3 kts 167°
2026-04-15 06:54 51.15425 -0.17270 212 ft 5 kts 168°
2026-04-15 06:55 51.15384 -0.17256 207 ft 7 kts 168°
2026-04-15 06:55 51.15330 -0.17237 203 ft 9 kts 167°
2026-04-15 06:55 51.15270 -0.17197 213 ft 8 kts 138°
2026-04-15 06:55 51.15264 -0.17106 215 ft 9 kts 80°
2026-04-15 06:56 51.15276 -0.17013 203 ft 8 kts 78°
2026-04-15 06:56 51.15286 -0.16936 208 ft 6 kts 77°
2026-04-15 06:56 51.15293 -0.16883 211 ft 5 kts 82°
2026-04-15 06:56 51.15278 -0.16833 204 ft 6 kts 139°
2026-04-15 06:57 51.15238 -0.16812 212 ft 7 kts 168°
2026-04-15 06:57 51.15184 -0.16793 207 ft 9 kts 167°
2026-04-15 06:57 51.15124 -0.16804 204 ft 9 kts 227°
2026-04-15 06:57 51.15112 -0.16874 210 ft 5 kts 258°
2026-04-15 06:58 51.15104 -0.16931 206 ft 9 kts 258°
2026-04-15 06:58 51.15041 -0.17387 210 ft 78 kts 257°
2026-04-15 06:58 51.14877 -0.18569 204 ft 139 kts 257°
2026-04-15 06:58 51.14636 -0.20311 378 ft 171 kts 255°
2026-04-15 06:59 51.14383 -0.22122 1149 ft 166 kts 255°
2026-04-15 06:59 51.14122 -0.23943 1732 ft 174 kts 255°
2026-04-15 06:59 51.13830 -0.25924 2041 ft 192 kts 255°
2026-04-15 06:59 51.13529 -0.28041 2340 ft 206 kts 255°
2026-04-15 07:00 51.13206 -0.30335 2675 ft 217 kts 254°
2026-04-15 07:00 51.12873 -0.32690 3275 ft 218 kts 255°
2026-04-15 07:00 51.12553 -0.35059 3881 ft 223 kts 254°
2026-04-15 07:00 51.12221 -0.37526 4468 ft 229 kts 254°
2026-04-15 07:01 51.11640 -0.39879 4929 ft 231 kts 232°
2026-04-15 07:01 51.10438 -0.41516 5011 ft 229 kts 204°
2026-04-15 07:01 51.08884 -0.42003 5030 ft 230 kts 180°
2026-04-15 07:01 51.07273 -0.41798 5051 ft 238 kts 178°
2026-04-15 07:02 51.05560 -0.41562 5387 ft 251 kts 178°
2026-04-15 07:02 51.03807 -0.41331 6054 ft 255 kts 178°
2026-04-15 07:02 51.02027 -0.41101 6751 ft 260 kts 178°
2026-04-15 07:02 51.00214 -0.40865 7462 ft 263 kts 178°
2026-04-15 07:03 50.98384 -0.40633 8157 ft 266 kts 178°
2026-04-15 07:03 50.96530 -0.40396 8821 ft 270 kts 178°
2026-04-15 07:03 50.95284 -0.40234 9272 ft 272 kts 178°
2026-04-15 07:03 50.92736 -0.39902 10193 ft 277 kts 178°
2026-04-15 07:04 50.90809 -0.39669 10896 ft 278 kts 178°
2026-04-15 07:04 50.88875 -0.39425 11574 ft 279 kts 178°
2026-04-15 07:04 50.86941 -0.39185 12203 ft 278 kts 179°
2026-04-15 07:04 50.84985 -0.38928 12755 ft 287 kts 175°
2026-04-15 07:05 50.83020 -0.38128 13492 ft 294 kts 161°
2026-04-15 07:05 50.81206 -0.36578 14125 ft 301 kts 152°
2026-04-15 07:05 50.79447 -0.34747 14746 ft 304 kts 151°
2026-04-15 07:05 50.78277 -0.33526 15135 ft 305 kts 151°
2026-04-15 07:06 50.76496 -0.31688 15712 ft 308 kts 152°
2026-04-15 07:06 50.74086 -0.29191 16465 ft 311 kts 152°
2026-04-15 07:06 50.72880 -0.27950 16828 ft 313 kts 152°
2026-04-15 07:06 50.71055 -0.26058 17354 ft 315 kts 151°
2026-04-15 07:07 50.69209 -0.24143 17792 ft 322 kts 151°
2026-04-15 07:07 50.67300 -0.22133 17912 ft 339 kts 150°
2026-04-15 07:07 50.65297 -0.20027 18054 ft 352 kts 150°
2026-04-15 07:07 50.63217 -0.17841 18184 ft 366 kts 150°
2026-04-15 07:08 50.61060 -0.15576 18315 ft 379 kts 150°
2026-04-15 07:08 50.58823 -0.13238 18445 ft 392 kts 150°
2026-04-15 07:08 50.56520 -0.10843 18738 ft 400 kts 150°
2026-04-15 07:08 50.54196 -0.08406 19169 ft 403 kts 150°
2026-04-15 07:09 50.51850 -0.05964 19592 ft 406 kts 150°
2026-04-15 07:09 50.49486 -0.03504 20039 ft 409 kts 150°
2026-04-15 07:09 50.47099 -0.01030 20453 ft 412 kts 150°
2026-04-15 07:09 50.44730 0.01428 20869 ft 416 kts 150°
2026-04-15 07:10 50.42310 0.03930 21273 ft 418 kts 150°
2026-04-15 07:10 50.39863 0.06455 21534 ft 425 kts 149°
2026-04-15 07:10 50.37380 0.09028 21763 ft 432 kts 149°
2026-04-15 07:10 50.34866 0.11643 22099 ft 435 kts 149°
2026-04-15 07:11 50.32333 0.14254 22442 ft 437 kts 149°
2026-04-15 07:11 50.29784 0.16877 22789 ft 440 kts 149°
2026-04-15 07:11 50.27224 0.19523 23129 ft 442 kts 149°
2026-04-15 07:11 50.24648 0.22172 23458 ft 445 kts 149°
2026-04-15 07:12 50.22057 0.24828 23780 ft 447 kts 149°
2026-04-15 07:12 50.19448 0.27494 24111 ft 449 kts 149°
2026-04-15 07:12 50.16834 0.30179 24429 ft 452 kts 149°
2026-04-15 07:12 50.14196 0.32897 24746 ft 454 kts 149°
2026-04-15 07:13 50.11550 0.35614 25042 ft 457 kts 149°
2026-04-15 07:13 50.08894 0.38352 25340 ft 460 kts 149°
2026-04-15 07:13 50.06209 0.41104 25657 ft 462 kts 149°
2026-04-15 07:13 50.03519 0.43839 25952 ft 464 kts 149°
2026-04-15 07:14 50.00815 0.46597 26230 ft 466 kts 149°
2026-04-15 07:14 49.98101 0.49367 26503 ft 467 kts 149°
2026-04-15 07:14 49.95409 0.52112 26729 ft 470 kts 149°
2026-04-15 07:14 49.92663 0.54910 26992 ft 473 kts 149°
2026-04-15 07:15 49.89905 0.57711 27245 ft 475 kts 149°
2026-04-15 07:15 49.87133 0.60518 27451 ft 477 kts 148°
2026-04-15 07:15 49.84502 0.63672 27693 ft 482 kts 140°
2026-04-15 07:15 49.82047 0.67235 27908 ft 484 kts 139°
2026-04-15 07:16 49.79606 0.70826 28223 ft 484 kts 139°
2026-04-15 07:16 49.77156 0.74384 28546 ft 483 kts 139°
2026-04-15 07:16 49.74702 0.77934 28848 ft 482 kts 139°
2026-04-15 07:16 49.72255 0.81491 29124 ft 483 kts 139°
2026-04-15 07:17 49.69808 0.85043 29405 ft 483 kts 139°
2026-04-15 07:17 49.67348 0.88592 29675 ft 483 kts 139°
2026-04-15 07:17 49.64901 0.92141 29972 ft 483 kts 139°
2026-04-15 07:17 49.62450 0.95678 30246 ft 483 kts 139°
2026-04-15 07:18 49.59987 0.99207 30554 ft 482 kts 139°
2026-04-15 07:18 49.57561 1.02683 30840 ft 482 kts 139°
2026-04-15 07:18 49.55089 1.06234 31096 ft 479 kts 139°
2026-04-15 07:18 49.52649 1.09720 31164 ft 477 kts 139°
2026-04-15 07:19 49.47822 1.16616 31161 ft 476 kts 139°
2026-04-15 07:19 49.42977 1.23539 31165 ft 476 kts 139°
2026-04-15 07:20 49.38126 1.30452 31165 ft 476 kts 139°
2026-04-15 07:20 49.33255 1.37343 31169 ft 476 kts 139°
2026-04-15 07:21 49.28386 1.44235 31168 ft 477 kts 139°
2026-04-15 07:21 49.23503 1.51125 31168 ft 477 kts 139°
2026-04-15 07:22 49.18617 1.57984 31177 ft 477 kts 139°
2026-04-15 07:22 49.13730 1.64848 31178 ft 477 kts 139°
2026-04-15 07:23 49.08834 1.71692 31181 ft 477 kts 139°
2026-04-15 07:23 49.03922 1.78511 31186 ft 478 kts 139°
2026-04-15 07:24 48.99023 1.85346 31189 ft 477 kts 139°
2026-04-15 07:24 48.94121 1.92134 31188 ft 477 kts 139°
2026-04-15 07:25 48.89212 1.98924 31191 ft 477 kts 139°
2026-04-15 07:25 48.84291 2.05714 31197 ft 478 kts 138°
2026-04-15 07:26 48.79346 2.12500 31206 ft 480 kts 138°
2026-04-15 07:26 48.74423 2.19243 31206 ft 480 kts 138°
2026-04-15 07:27 48.69463 2.26022 31210 ft 481 kts 138°
2026-04-15 07:27 48.64492 2.32814 31217 ft 481 kts 138°
2026-04-15 07:28 48.59527 2.39575 31221 ft 481 kts 138°
2026-04-15 07:28 48.54548 2.46316 31228 ft 481 kts 138°
2026-04-15 07:29 48.49566 2.53047 31234 ft 480 kts 138°
2026-04-15 07:29 48.44589 2.59775 31235 ft 479 kts 138°
2026-04-15 07:30 48.39610 2.66451 31231 ft 479 kts 139°
2026-04-15 07:30 48.34633 2.73128 31233 ft 480 kts 138°
2026-04-15 07:31 48.29687 2.79756 31232 ft 480 kts 138°
2026-04-15 07:31 48.24510 2.86168 31232 ft 480 kts 143°
2026-04-15 07:32 48.19247 2.92216 31232 ft 480 kts 142°
2026-04-15 07:32 48.13953 2.98338 31234 ft 480 kts 142°
2026-04-15 07:33 48.08583 3.04277 31237 ft 480 kts 149°
2026-04-15 07:33 48.02538 3.08498 31242 ft 480 kts 158°
2026-04-15 07:34 47.96377 3.12350 31242 ft 480 kts 158°
2026-04-15 07:34 47.90203 3.16220 31236 ft 481 kts 157°
2026-04-15 07:35 47.84020 3.20096 31233 ft 483 kts 157°
2026-04-15 07:35 47.77830 3.23961 31230 ft 482 kts 157°
2026-04-15 07:36 47.71634 3.27825 31232 ft 483 kts 157°
2026-04-15 07:36 47.65443 3.31680 31231 ft 483 kts 157°
2026-04-15 07:37 47.59275 3.35491 31232 ft 483 kts 157°
2026-04-15 07:37 47.53065 3.39340 31239 ft 484 kts 157°
2026-04-15 07:38 47.46846 3.43171 31244 ft 484 kts 157°
2026-04-15 07:38 47.40626 3.47003 31245 ft 484 kts 157°
2026-04-15 07:39 47.34403 3.50840 31243 ft 484 kts 157°
2026-04-15 07:39 47.28175 3.54649 31239 ft 485 kts 157°
2026-04-15 07:40 47.21943 3.58452 31240 ft 485 kts 157°
2026-04-15 07:40 47.15701 3.62261 31242 ft 486 kts 157°
2026-04-15 07:41 47.09448 3.66062 31249 ft 486 kts 157°
2026-04-15 07:41 47.03194 3.69841 31247 ft 486 kts 157°
2026-04-15 07:42 46.97317 3.74628 31242 ft 483 kts 139°
2026-04-15 07:42 46.92839 3.81747 31239 ft 477 kts 120°
2026-04-15 07:43 46.90025 3.90424 31242 ft 471 kts 107°
2026-04-15 07:43 46.87684 3.99367 31243 ft 471 kts 107°
2026-04-15 07:44 46.85310 4.08299 31250 ft 471 kts 107°
2026-04-15 07:44 46.82928 4.17213 31252 ft 471 kts 107°
2026-04-15 07:45 46.80617 4.26143 31255 ft 467 kts 101°
2026-04-15 07:45 46.79223 4.35339 31256 ft 463 kts 97°
2026-04-15 07:46 46.77893 4.44526 31252 ft 463 kts 97°
2026-04-15 07:46 46.76534 4.53713 31250 ft 463 kts 97°
2026-04-15 07:47 46.75182 4.62841 31254 ft 463 kts 97°
2026-04-15 07:47 46.73834 4.72023 31256 ft 463 kts 97°
2026-04-15 07:48 46.72461 4.81188 30960 ft 461 kts 97°
2026-04-15 07:48 46.71775 4.85741 30687 ft 460 kts 97°
2026-04-15 07:48 46.71082 4.90299 29865 ft 463 kts 97°
2026-04-15 07:49 46.70387 4.94896 29028 ft 465 kts 97°
2026-04-15 07:49 46.69694 4.99491 28230 ft 465 kts 97°
2026-04-15 07:49 46.68995 5.04090 27618 ft 461 kts 98°
2026-04-15 07:49 46.68311 5.08617 27054 ft 456 kts 98°
2026-04-15 07:50 46.67629 5.13113 26464 ft 451 kts 98°
2026-04-15 07:50 46.66948 5.17539 25883 ft 446 kts 98°
2026-04-15 07:50 46.66282 5.21928 25308 ft 441 kts 98°
2026-04-15 07:50 46.65629 5.26271 24726 ft 437 kts 98°
2026-04-15 07:51 46.64978 5.30572 24136 ft 433 kts 98°
2026-04-15 07:51 46.64335 5.34824 23553 ft 428 kts 99°
2026-04-15 07:51 46.63698 5.39019 22976 ft 423 kts 99°
2026-04-15 07:51 46.63065 5.43177 22405 ft 419 kts 99°
2026-04-15 07:52 46.62442 5.47293 21830 ft 415 kts 99°
2026-04-15 07:52 46.61816 5.51379 21258 ft 412 kts 99°
2026-04-15 07:52 46.61174 5.55421 20691 ft 409 kts 100°
2026-04-15 07:52 46.60552 5.59393 20112 ft 407 kts 100°
2026-04-15 07:53 46.59929 5.63397 19557 ft 404 kts 100°
2026-04-15 07:53 46.59307 5.67375 18994 ft 402 kts 100°
2026-04-15 07:53 46.58688 5.71312 18434 ft 399 kts 101°
2026-04-15 07:53 46.58038 5.75225 17874 ft 396 kts 105°
2026-04-15 07:54 46.56992 5.78920 17323 ft 396 kts 117°
2026-04-15 07:54 46.55450 5.82231 16772 ft 394 kts 129°
2026-04-15 07:54 46.53498 5.84999 16226 ft 392 kts 140°
2026-04-15 07:54 46.51287 5.87302 15689 ft 389 kts 144°
2026-04-15 07:55 46.49067 5.89522 15127 ft 385 kts 144°
2026-04-15 07:55 46.46883 5.91717 14605 ft 380 kts 144°
2026-04-15 07:55 46.43306 5.95273 14023 ft 365 kts 144°
2026-04-15 07:56 46.41263 5.97313 13905 ft 349 kts 144°
2026-04-15 07:56 46.39296 5.99286 13754 ft 337 kts 144°
2026-04-15 07:56 46.37384 6.01139 13609 ft 325 kts 150°
2026-04-15 07:56 46.34590 6.02300 13418 ft 311 kts 179°
2026-04-15 07:57 46.33149 6.02115 13265 ft 306 kts 193°
2026-04-15 07:57 46.31206 6.00926 12879 ft 304 kts 216°
2026-04-15 07:57 46.29638 5.98911 12526 ft 301 kts 226°
2026-04-15 07:57 46.28173 5.96745 12174 ft 301 kts 226°
2026-04-15 07:58 46.26708 5.94585 11805 ft 301 kts 226°
2026-04-15 07:58 46.25238 5.92427 11442 ft 301 kts 225°
2026-04-15 07:58 46.23771 5.90287 11081 ft 299 kts 225°
2026-04-15 07:58 46.22307 5.88161 10725 ft 298 kts 225°
2026-04-15 07:59 46.20857 5.86052 10375 ft 295 kts 225°
2026-04-15 07:59 46.19420 5.83956 10023 ft 293 kts 225°
2026-04-15 07:59 46.17999 5.81905 9859 ft 284 kts 224°
2026-04-15 07:59 46.16625 5.79920 9735 ft 274 kts 225°
2026-04-15 08:00 46.15317 5.78024 9584 ft 266 kts 225°
2026-04-15 08:00 46.14004 5.76113 9305 ft 263 kts 224°
2026-04-15 08:00 46.12732 5.74272 9004 ft 261 kts 224°
2026-04-15 08:00 46.11451 5.72422 8707 ft 260 kts 224°
2026-04-15 08:01 46.10178 5.70579 8431 ft 257 kts 224°
2026-04-15 08:01 46.08925 5.68772 8267 ft 253 kts 224°
2026-04-15 08:01 46.07678 5.66988 8091 ft 252 kts 222°
2026-04-15 08:01 46.06209 5.65698 7913 ft 249 kts 193°
2026-04-15 08:02 46.04505 5.65649 7736 ft 245 kts 163°
2026-04-15 08:02 46.03062 5.66856 7596 ft 242 kts 133°
2026-04-15 08:02 46.02271 5.68949 7435 ft 242 kts 104°
2026-04-15 08:02 46.01893 5.71316 7261 ft 242 kts 103°
2026-04-15 08:03 46.01529 5.73687 7102 ft 243 kts 101°
2026-04-15 08:03 46.01516 5.76104 7034 ft 243 kts 81°
2026-04-15 08:03 46.02042 5.78406 7022 ft 244 kts 64°
2026-04-15 08:03 46.02978 5.80447 6851 ft 245 kts 50°
2026-04-15 08:04 46.04146 5.82220 6538 ft 243 kts 46°
2026-04-15 08:04 46.05336 5.83948 6214 ft 242 kts 46°
2026-04-15 08:04 46.06517 5.85662 5897 ft 240 kts 46°
2026-04-15 08:04 46.07687 5.87356 5572 ft 237 kts 46°
2026-04-15 08:05 46.08837 5.89032 5258 ft 232 kts 46°
2026-04-15 08:05 46.09964 5.90671 4954 ft 228 kts 46°
2026-04-15 08:05 46.11071 5.92282 4670 ft 223 kts 46°
2026-04-15 08:05 46.12147 5.93848 4367 ft 215 kts 46°
2026-04-15 08:06 46.13149 5.95308 4086 ft 207 kts 46°
2026-04-15 08:06 46.14142 5.96760 3817 ft 201 kts 46°
2026-04-15 08:06 46.15094 5.98150 3580 ft 191 kts 46°
2026-04-15 08:06 46.15999 5.99469 3311 ft 178 kts 46°
2026-04-15 08:07 46.16835 6.00693 3088 ft 165 kts 46°
2026-04-15 08:07 46.17624 6.01838 2871 ft 158 kts 46°
2026-04-15 08:07 46.18380 6.02942 2679 ft 153 kts 46°
2026-04-15 08:07 46.19116 6.04021 2474 ft 150 kts 46°
2026-04-15 08:08 46.19841 6.05084 2270 ft 148 kts 46°
2026-04-15 08:08 46.20561 6.06136 2071 ft 147 kts 45°
2026-04-15 08:08 46.21276 6.07192 1873 ft 147 kts 46°
2026-04-15 08:08 46.21991 6.08245 1695 ft 146 kts 45°
2026-04-15 08:09 46.22705 6.09280 1477 ft 145 kts 45°
2026-04-15 08:09 46.23386 6.10280 1402 ft 126 kts 45°
2026-04-15 08:09 46.23878 6.11004 1378 ft 76 kts 45°
2026-04-15 08:09 46.24122 6.11361 1375 ft 28 kts 45°
2026-04-15 08:10 46.24252 6.11566 1373 ft 28 kts 53°
2026-04-15 08:10 46.24320 6.11770 1368 ft 17 kts 71°
2026-04-15 08:10 46.24336 6.11905 1365 ft 8 kts 114°
2026-04-15 08:10 46.24292 6.11928 1363 ft 10 kts 193°
2026-04-15 08:11 46.24233 6.11854 1362 ft 12 kts 225°
2026-04-15 08:11 46.24172 6.11764 1364 ft 12 kts 225°
2026-04-15 08:11 46.24112 6.11677 1366 ft 12 kts 225°
2026-04-15 08:11 46.24055 6.11593 1368 ft 12 kts 225°
2026-04-15 08:12 46.23996 6.11507 1371 ft 12 kts 225°
2026-04-15 08:12 46.23940 6.11424 1372 ft 11 kts 225°
2026-04-15 08:12 46.23884 6.11343 1372 ft 11 kts 225°
2026-04-15 08:12 46.23830 6.11263 1374 ft 12 kts 225°
2026-04-15 08:13 46.23771 6.11177 1376 ft 12 kts 225°
2026-04-15 08:13 46.23718 6.11099 1384 ft 9 kts 225°
2026-04-15 08:13 46.23678 6.11040 1389 ft 8 kts 226°
2026-04-15 08:13 46.23638 6.10981 1385 ft 9 kts 225°
2026-04-15 08:14 46.23591 6.10912 1389 ft 11 kts 225°
2026-04-15 08:14 46.23536 6.10831 1388 ft 12 kts 225°
2026-04-15 08:14 46.23472 6.10738 1389 ft 14 kts 225°
2026-04-15 08:14 46.23410 6.10651 1401 ft 11 kts 219°
2026-04-15 08:15 46.23352 6.10574 1403 ft 12 kts 224°
2026-04-15 08:15 46.23290 6.10483 1398 ft 12 kts 226°
2026-04-15 08:15 46.23254 6.10441 1401 ft 7 kts 200°
2026-04-15 08:15 46.23203 6.10437 1399 ft 7 kts 180°
2026-04-15 08:16 46.23172 6.10437 1392 ft 3 kts 180°
2026-04-15 08:16 46.23169 6.10437 1392 ft 0 kts 180°